Find Starlink 11533

NORAD ID: 62836 Int'l Des: 2025-019 Owner: SPXS Country: US Constellation: starlink operational
LEOCIRCULAR

Live Position

Loading 3D Globe...

About Starlink 11533

Description loading...

Upcoming Passes

Passes for default location (London). Set your location on the main map for personalized predictions.

Altitude History

Loading altitude history...

Two-Line Element Set

1 62836U 25019H 26104.12979852 .00073927 00000-0 57379-3 0 9990
2 62836 42.9994 92.4406 0001030 250.8249 109.2507 15.70870272 69450
Epoch: Apr 14, 2026 • Age: 7 hours

Current Status

Altitude 357.4 km
Velocity 7.70 km/s
Sub-Earth Point 31.00°N, 118.28°W
Launch Date Jan 27, 2025
Age 1.2 years
Type internet

Technical Details

Classification Payload
Mass 960.00 kg
Dry Mass 910.00 kg
Total Mass 960.00 kg
Length 0.30 m
Diameter 4.10 m
Span 29.00 m
Shape Box + pan
Manufacturer SPXS
Bus Type Starlink V2MD
Phase Status In Orbit
Owner/State SPXS/US

Most Searched